Year,Month,Day,Hour,Minute,Value (Times are PST for temperature in C)
2019,04,20,00,00,4.20
2019,04,20,00,01,4.20
2019,04,20,00,02,4.30
2019,04,20,00,03,4.40
2019,04,20,00,04,4.50
2019,04,20,00,05,4.60
2019,04,20,00,06,4.70
2019,04,20,00,07,4.80
2019,04,20,00,08,4.90
2019,04,20,00,09,5.00
2019,04,20,00,10,5.10
2019,04,20,00,11,5.10
2019,04,20,00,12,5.10
2019,04,20,00,13,5.10
2019,04,20,00,14,5.10
2019,04,20,00,15,5.10
2019,04,20,00,16,5.00
2019,04,20,00,17,4.90
2019,04,20,00,18,4.80
2019,04,20,00,19,4.60
2019,04,20,00,20,4.50
2019,04,20,00,21,4.40
2019,04,20,00,22,4.30
2019,04,20,00,23,4.20
2019,04,20,00,24,4.20
2019,04,20,00,25,4.10
2019,04,20,00,26,4.00
2019,04,20,00,27,4.00
2019,04,20,00,28,3.90
2019,04,20,00,29,3.90
2019,04,20,00,30,3.80
2019,04,20,00,31,3.80
2019,04,20,00,32,3.80
2019,04,20,00,33,3.80
2019,04,20,00,34,3.70
2019,04,20,00,35,3.80
2019,04,20,00,36,3.80
2019,04,20,00,37,3.80
2019,04,20,00,38,3.90
2019,04,20,00,39,3.90
2019,04,20,00,40,3.90
2019,04,20,00,41,3.90
2019,04,20,00,42,3.90
2019,04,20,00,43,3.90
2019,04,20,00,44,3.90
2019,04,20,00,45,3.90
2019,04,20,00,46,3.90
2019,04,20,00,47,3.90
2019,04,20,00,48,3.90
2019,04,20,00,49,4.00
2019,04,20,00,50,4.00
2019,04,20,00,51,3.90
2019,04,20,00,52,3.90
2019,04,20,00,53,3.80
2019,04,20,00,54,3.80
2019,04,20,00,55,3.70
2019,04,20,00,56,3.60
2019,04,20,00,57,3.60
2019,04,20,00,58,3.60
2019,04,20,00,59,3.60
2019,04,20,01,00,3.60
2019,04,20,01,01,3.60
2019,04,20,01,02,3.60
2019,04,20,01,03,3.70
2019,04,20,01,04,3.70
2019,04,20,01,05,3.60
2019,04,20,01,06,3.60
2019,04,20,01,07,3.60
2019,04,20,01,08,3.70
2019,04,20,01,09,3.70
2019,04,20,01,10,3.80
2019,04,20,01,11,3.90
2019,04,20,01,12,4.00
2019,04,20,01,13,4.10
2019,04,20,01,14,4.20
2019,04,20,01,15,4.30
2019,04,20,01,16,4.40
2019,04,20,01,17,4.40
2019,04,20,01,18,4.30
2019,04,20,01,19,4.20
2019,04,20,01,20,4.10
2019,04,20,01,21,4.00
2019,04,20,01,22,4.00
2019,04,20,01,23,4.00
2019,04,20,01,24,4.00
2019,04,20,01,25,3.90
2019,04,20,01,26,3.90
2019,04,20,01,27,3.90
2019,04,20,01,28,3.80
2019,04,20,01,29,3.80
2019,04,20,01,30,3.80
2019,04,20,01,31,3.70
2019,04,20,01,32,3.70
2019,04,20,01,33,3.60
2019,04,20,01,34,3.60
2019,04,20,01,35,3.60
2019,04,20,01,36,3.60
2019,04,20,01,37,3.60
2019,04,20,01,38,3.60
2019,04,20,01,39,3.50
2019,04,20,01,40,3.50
2019,04,20,01,41,3.50
2019,04,20,01,42,3.40
2019,04,20,01,43,3.40
2019,04,20,01,44,3.30
2019,04,20,01,45,3.20
2019,04,20,01,46,3.10
2019,04,20,01,47,3.00
2019,04,20,01,48,3.00
2019,04,20,01,49,2.90
2019,04,20,01,50,2.90
2019,04,20,01,51,3.00
2019,04,20,01,52,3.00
2019,04,20,01,53,3.10
2019,04,20,01,54,3.10
2019,04,20,01,55,3.10
2019,04,20,01,56,3.20
2019,04,20,01,57,3.20
2019,04,20,01,58,3.20
2019,04,20,01,59,3.20
2019,04,20,02,00,3.20
2019,04,20,02,01,3.20
2019,04,20,02,02,3.20
2019,04,20,02,03,3.20
2019,04,20,02,04,3.10
2019,04,20,02,05,3.10
2019,04,20,02,06,3.00
2019,04,20,02,07,3.00
2019,04,20,02,08,2.90
2019,04,20,02,09,2.90
2019,04,20,02,10,2.80
2019,04,20,02,11,2.80
2019,04,20,02,12,2.70
2019,04,20,02,13,2.70
2019,04,20,02,14,2.70
2019,04,20,02,15,2.70
2019,04,20,02,16,2.60
2019,04,20,02,17,2.60
2019,04,20,02,18,2.70
2019,04,20,02,19,2.70
2019,04,20,02,20,2.70
2019,04,20,02,21,2.70
2019,04,20,02,22,2.70
2019,04,20,02,23,2.60
2019,04,20,02,24,2.60
2019,04,20,02,25,2.60
2019,04,20,02,26,2.60
2019,04,20,02,27,2.60
2019,04,20,02,28,2.60
2019,04,20,02,29,2.60
2019,04,20,02,30,2.60
2019,04,20,02,31,2.70
2019,04,20,02,32,2.70
2019,04,20,02,33,2.70
2019,04,20,02,34,2.70
2019,04,20,02,35,2.70
2019,04,20,02,36,2.70
2019,04,20,02,37,2.70
2019,04,20,02,38,2.70
2019,04,20,02,39,2.60
2019,04,20,02,40,2.60
2019,04,20,02,41,2.60
2019,04,20,02,42,2.60
2019,04,20,02,43,2.70
2019,04,20,02,44,2.80
2019,04,20,02,45,2.80
2019,04,20,02,46,2.70
2019,04,20,02,47,2.70
2019,04,20,02,48,2.70
2019,04,20,02,49,2.70
2019,04,20,02,50,2.60
2019,04,20,02,51,2.60
2019,04,20,02,52,2.60
2019,04,20,02,53,2.60
2019,04,20,02,54,2.60
2019,04,20,02,55,2.60
2019,04,20,02,56,2.60
2019,04,20,02,57,2.60
2019,04,20,02,58,2.70
2019,04,20,02,59,2.70
2019,04,20,03,00,2.80
2019,04,20,03,01,2.80
2019,04,20,03,02,2.80
2019,04,20,03,03,2.70
2019,04,20,03,04,2.70
2019,04,20,03,05,2.80
2019,04,20,03,06,2.80
2019,04,20,03,07,2.80
2019,04,20,03,08,2.90
2019,04,20,03,09,2.90
2019,04,20,03,10,3.00
2019,04,20,03,11,3.00
2019,04,20,03,12,3.00
2019,04,20,03,13,3.10
2019,04,20,03,14,3.10
2019,04,20,03,15,3.10
2019,04,20,03,16,3.10
2019,04,20,03,17,3.10
2019,04,20,03,18,3.10
2019,04,20,03,19,3.10
2019,04,20,03,20,3.10
2019,04,20,03,21,3.00
2019,04,20,03,22,3.00
2019,04,20,03,23,3.00
2019,04,20,03,24,2.90
2019,04,20,03,25,2.90
2019,04,20,03,26,2.90
2019,04,20,03,27,2.80
2019,04,20,03,28,2.80
2019,04,20,03,29,2.80
2019,04,20,03,30,2.80
2019,04,20,03,31,2.80
2019,04,20,03,32,2.80
2019,04,20,03,33,2.70
2019,04,20,03,34,2.70
2019,04,20,03,35,2.80
2019,04,20,03,36,2.80
2019,04,20,03,37,2.80
2019,04,20,03,38,2.80
2019,04,20,03,39,2.80
2019,04,20,03,40,2.80
2019,04,20,03,41,2.80
2019,04,20,03,42,2.80
2019,04,20,03,43,2.80
2019,04,20,03,44,2.80
2019,04,20,03,45,2.90
2019,04,20,03,46,2.90
2019,04,20,03,47,2.90
2019,04,20,03,48,2.90
2019,04,20,03,49,2.90
2019,04,20,03,50,2.90
2019,04,20,03,51,2.80
2019,04,20,03,52,2.80
2019,04,20,03,53,2.70
2019,04,20,03,54,2.80
2019,04,20,03,55,2.80
2019,04,20,03,56,2.90
2019,04,20,03,57,2.90
2019,04,20,03,58,2.90
2019,04,20,03,59,2.90
2019,04,20,04,00,2.90
2019,04,20,04,01,3.00
2019,04,20,04,02,3.00
2019,04,20,04,03,3.00
2019,04,20,04,04,3.00
2019,04,20,04,05,3.10
2019,04,20,04,06,3.20
2019,04,20,04,07,3.20
2019,04,20,04,08,3.20
2019,04,20,04,09,3.30
2019,04,20,04,10,3.30
2019,04,20,04,11,3.30
2019,04,20,04,12,3.30
2019,04,20,04,13,3.30
2019,04,20,04,14,3.30
2019,04,20,04,15,3.30
2019,04,20,04,16,3.30
2019,04,20,04,17,3.30
2019,04,20,04,18,3.30
2019,04,20,04,19,3.30
2019,04,20,04,20,3.30
2019,04,20,04,21,3.30
2019,04,20,04,22,3.30
2019,04,20,04,23,3.30
2019,04,20,04,24,3.30
2019,04,20,04,25,3.30
2019,04,20,04,26,3.20
2019,04,20,04,27,3.20
2019,04,20,04,28,3.10
2019,04,20,04,29,3.00
2019,04,20,04,30,3.00
2019,04,20,04,31,3.00
2019,04,20,04,32,3.00
2019,04,20,04,33,3.00
2019,04,20,04,34,3.00
2019,04,20,04,35,3.00
2019,04,20,04,36,3.00
2019,04,20,04,37,3.00
2019,04,20,04,38,3.00
2019,04,20,04,39,3.00
2019,04,20,04,40,2.90
2019,04,20,04,41,2.90
2019,04,20,04,42,2.90
2019,04,20,04,43,2.90
2019,04,20,04,44,2.80
2019,04,20,04,45,2.90
2019,04,20,04,46,3.00
2019,04,20,04,47,3.10
2019,04,20,04,48,3.20
2019,04,20,04,49,3.30
2019,04,20,04,50,3.30
2019,04,20,04,51,3.30
2019,04,20,04,52,3.30
2019,04,20,04,53,3.30
2019,04,20,04,54,3.30
2019,04,20,04,55,3.30
2019,04,20,04,56,3.30
2019,04,20,04,57,3.20
2019,04,20,04,58,3.20
2019,04,20,04,59,3.10
2019,04,20,05,00,3.10
2019,04,20,05,01,3.20
2019,04,20,05,02,3.20
2019,04,20,05,03,3.30
2019,04,20,05,04,3.30
2019,04,20,05,05,3.40
2019,04,20,05,06,3.50
2019,04,20,05,07,3.60
2019,04,20,05,08,3.70
2019,04,20,05,09,3.80
2019,04,20,05,10,3.90
2019,04,20,05,11,3.90
2019,04,20,05,12,4.00
2019,04,20,05,13,4.00
2019,04,20,05,14,4.00
2019,04,20,05,15,4.00
2019,04,20,05,16,4.00
2019,04,20,05,17,4.00
2019,04,20,05,18,4.00
2019,04,20,05,19,4.00
2019,04,20,05,20,4.00
2019,04,20,05,21,4.00
2019,04,20,05,22,3.90
2019,04,20,05,23,3.90
2019,04,20,05,24,3.90
2019,04,20,05,25,3.90
2019,04,20,05,26,3.80
2019,04,20,05,27,3.80
2019,04,20,05,28,3.80
2019,04,20,05,29,3.80
2019,04,20,05,30,3.80
2019,04,20,05,31,3.90
2019,04,20,05,32,3.90
2019,04,20,05,33,4.00
2019,04,20,05,34,4.00
2019,04,20,05,35,4.10
2019,04,20,05,36,4.10
2019,04,20,05,37,4.10
2019,04,20,05,38,4.10
2019,04,20,05,39,4.10
2019,04,20,05,40,4.00
2019,04,20,05,41,4.00
2019,04,20,05,42,4.00
2019,04,20,05,43,4.00
2019,04,20,05,44,3.90
2019,04,20,05,45,3.90
2019,04,20,05,46,3.90
2019,04,20,05,47,3.80
2019,04,20,05,48,3.80
2019,04,20,05,49,3.80
2019,04,20,05,50,3.80
2019,04,20,05,51,3.70
2019,04,20,05,52,3.70
2019,04,20,05,53,3.70
2019,04,20,05,54,3.60
2019,04,20,05,55,3.60
2019,04,20,05,56,3.50
2019,04,20,05,57,3.50
2019,04,20,05,58,3.50
2019,04,20,05,59,3.40
2019,04,20,06,00,3.40
2019,04,20,06,01,3.40
2019,04,20,06,02,3.40
2019,04,20,06,03,3.40
2019,04,20,06,04,3.40
2019,04,20,06,05,3.40
2019,04,20,06,06,3.50
2019,04,20,06,07,3.40
2019,04,20,06,08,3.40
2019,04,20,06,09,3.30
2019,04,20,06,10,3.20
2019,04,20,06,11,3.20
2019,04,20,06,12,3.10
2019,04,20,06,13,3.10
2019,04,20,06,14,3.00
2019,04,20,06,15,2.90
2019,04,20,06,16,2.90
2019,04,20,06,17,2.80
2019,04,20,06,18,2.80
2019,04,20,06,19,2.70
2019,04,20,06,20,2.70
2019,04,20,06,21,2.60
2019,04,20,06,22,2.60
2019,04,20,06,23,2.50
2019,04,20,06,24,2.50
2019,04,20,06,25,2.50
2019,04,20,06,26,2.50
2019,04,20,06,27,2.50
2019,04,20,06,28,2.50
2019,04,20,06,29,2.50
2019,04,20,06,30,2.50
2019,04,20,06,31,2.50
2019,04,20,06,32,2.40
2019,04,20,06,33,2.40
2019,04,20,06,34,2.40
2019,04,20,06,35,2.40
2019,04,20,06,36,2.30
2019,04,20,06,37,2.30
2019,04,20,06,38,2.30
2019,04,20,06,39,2.30
2019,04,20,06,40,2.30
2019,04,20,06,41,2.30
2019,04,20,06,42,2.30
2019,04,20,06,43,2.30
2019,04,20,06,44,2.30
2019,04,20,06,45,2.30
2019,04,20,06,46,2.40
2019,04,20,06,47,2.40
2019,04,20,06,48,2.40
2019,04,20,06,49,2.50
2019,04,20,06,50,2.50
2019,04,20,06,51,2.60
2019,04,20,06,52,2.60
2019,04,20,06,53,2.70
2019,04,20,06,54,2.70
2019,04,20,06,55,2.80
2019,04,20,06,56,2.90
2019,04,20,06,57,3.00
2019,04,20,06,58,3.00
2019,04,20,06,59,3.10
2019,04,20,07,00,3.20
2019,04,20,07,01,3.20
2019,04,20,07,02,3.20
2019,04,20,07,03,3.20
2019,04,20,07,04,3.20
2019,04,20,07,05,3.30
2019,04,20,07,06,3.30
2019,04,20,07,07,3.40
2019,04,20,07,08,3.50
2019,04,20,07,09,3.60
2019,04,20,07,10,3.60
2019,04,20,07,11,3.70
2019,04,20,07,12,3.80
2019,04,20,07,13,3.80
2019,04,20,07,14,3.90
2019,04,20,07,15,3.90
2019,04,20,07,16,3.90
2019,04,20,07,17,4.00
2019,04,20,07,18,4.00
2019,04,20,07,19,4.10
2019,04,20,07,20,4.10
2019,04,20,07,21,4.20
2019,04,20,07,22,4.20
2019,04,20,07,23,4.30
2019,04,20,07,24,4.30
2019,04,20,07,25,4.30
2019,04,20,07,26,4.40
2019,04,20,07,27,4.40
2019,04,20,07,28,4.40
2019,04,20,07,29,4.40
2019,04,20,07,30,4.30
2019,04,20,07,31,4.40
2019,04,20,07,32,4.30
2019,04,20,07,33,4.40
2019,04,20,07,34,4.40
2019,04,20,07,35,4.40
2019,04,20,07,36,4.50
2019,04,20,07,37,4.60
2019,04,20,07,38,4.60
2019,04,20,07,39,4.70
2019,04,20,07,40,4.70
2019,04,20,07,41,4.70
2019,04,20,07,42,4.70
2019,04,20,07,43,4.80
2019,04,20,07,44,4.80
2019,04,20,07,45,4.80
2019,04,20,07,46,4.90
2019,04,20,07,47,4.90
2019,04,20,07,48,5.00
2019,04,20,07,49,5.00
2019,04,20,07,50,5.10
2019,04,20,07,51,5.10
2019,04,20,07,52,5.20
2019,04,20,07,53,5.20
2019,04,20,07,54,5.30
2019,04,20,07,55,5.30
2019,04,20,07,56,5.40
2019,04,20,07,57,5.50
2019,04,20,07,58,5.50
2019,04,20,07,59,5.60
2019,04,20,08,00,5.70
2019,04,20,08,01,5.70
2019,04,20,08,02,5.80
2019,04,20,08,03,5.80
2019,04,20,08,04,5.90
2019,04,20,08,05,5.90
2019,04,20,08,06,5.90
2019,04,20,08,07,6.00
2019,04,20,08,08,6.00
2019,04,20,08,09,6.10
2019,04,20,08,10,6.10
2019,04,20,08,11,6.20
2019,04,20,08,12,6.20
2019,04,20,08,13,6.30
2019,04,20,08,14,6.30
2019,04,20,08,15,6.40
2019,04,20,08,16,6.50
2019,04,20,08,17,6.60
2019,04,20,08,18,6.70
2019,04,20,08,19,6.70
2019,04,20,08,20,6.80
2019,04,20,08,21,6.80
2019,04,20,08,22,6.80
2019,04,20,08,23,6.80
2019,04,20,08,24,6.80
2019,04,20,08,25,6.80
2019,04,20,08,26,6.80
2019,04,20,08,27,6.80
2019,04,20,08,28,6.90
2019,04,20,08,29,6.90
2019,04,20,08,30,6.90
2019,04,20,08,31,6.90
2019,04,20,08,32,7.00
2019,04,20,08,33,7.10
2019,04,20,08,34,7.10
2019,04,20,08,35,7.10
2019,04,20,08,36,7.20
2019,04,20,08,37,7.10
2019,04,20,08,38,7.10
2019,04,20,08,39,7.10
2019,04,20,08,40,7.10
2019,04,20,08,41,7.10
2019,04,20,08,42,7.00
2019,04,20,08,43,7.00
2019,04,20,08,44,7.00
2019,04,20,08,45,7.10
2019,04,20,08,46,7.10
2019,04,20,08,47,7.10
2019,04,20,08,48,7.20
2019,04,20,08,49,7.20
2019,04,20,08,50,7.30
2019,04,20,08,51,7.30
2019,04,20,08,52,7.30
2019,04,20,08,53,7.40
2019,04,20,08,54,7.40
2019,04,20,08,55,7.40
2019,04,20,08,56,7.50
2019,04,20,08,57,7.50
2019,04,20,08,58,7.60
2019,04,20,08,59,7.70
2019,04,20,09,00,7.80
2019,04,20,09,01,7.80
2019,04,20,09,02,7.90
2019,04,20,09,03,8.00
2019,04,20,09,04,8.00
2019,04,20,09,05,8.10
2019,04,20,09,06,8.10
2019,04,20,09,07,8.10
2019,04,20,09,08,8.10
2019,04,20,09,09,8.20
2019,04,20,09,10,8.20
2019,04,20,09,11,8.20
2019,04,20,09,12,8.30
2019,04,20,09,13,8.30
2019,04,20,09,14,8.40
2019,04,20,09,15,8.40
2019,04,20,09,16,8.40
2019,04,20,09,17,8.40
2019,04,20,09,18,8.40
2019,04,20,09,19,8.50
2019,04,20,09,20,8.50
2019,04,20,09,21,8.60
2019,04,20,09,22,8.60
2019,04,20,09,23,8.60
2019,04,20,09,24,8.60
2019,04,20,09,25,8.50
2019,04,20,09,26,8.50
2019,04,20,09,27,8.40
2019,04,20,09,28,8.30
2019,04,20,09,29,8.30
2019,04,20,09,30,8.30
2019,04,20,09,31,8.30
2019,04,20,09,32,8.40
2019,04,20,09,33,8.50
2019,04,20,09,34,8.50
2019,04,20,09,35,8.60
2019,04,20,09,36,8.60
2019,04,20,09,37,8.70
2019,04,20,09,38,8.80
2019,04,20,09,39,8.90
2019,04,20,09,40,9.00
2019,04,20,09,41,8.90
2019,04,20,09,42,8.90
2019,04,20,09,43,8.80
2019,04,20,09,44,8.70
2019,04,20,09,45,8.70
2019,04,20,09,46,8.70
2019,04,20,09,47,8.70
2019,04,20,09,48,8.80
2019,04,20,09,49,8.90
2019,04,20,09,50,8.90
2019,04,20,09,51,9.00
2019,04,20,09,52,9.10
2019,04,20,09,53,9.10
2019,04,20,09,54,9.10
2019,04,20,09,55,9.20
2019,04,20,09,56,9.20
2019,04,20,09,57,9.20
2019,04,20,09,58,9.20
2019,04,20,09,59,9.20
2019,04,20,10,00,9.20
2019,04,20,10,01,9.20
2019,04,20,10,02,9.30
2019,04,20,10,03,9.30
2019,04,20,10,04,9.30
2019,04,20,10,05,9.20
2019,04,20,10,06,9.20
2019,04,20,10,07,9.30
2019,04,20,10,08,9.30
2019,04,20,10,09,9.40
2019,04,20,10,10,9.40
2019,04,20,10,11,9.50
2019,04,20,10,12,9.50
2019,04,20,10,13,9.50
2019,04,20,10,14,9.40
2019,04,20,10,15,9.40
2019,04,20,10,16,9.40
2019,04,20,10,17,9.40
2019,04,20,10,18,9.40
2019,04,20,10,19,9.50
2019,04,20,10,20,9.50
2019,04,20,10,21,9.60
2019,04,20,10,22,9.60
2019,04,20,10,23,9.70
2019,04,20,10,24,9.80
2019,04,20,10,25,9.80
2019,04,20,10,26,9.90
2019,04,20,10,27,10.00
2019,04,20,10,28,10.10
2019,04,20,10,29,10.20
2019,04,20,10,30,10.20
2019,04,20,10,31,10.20
2019,04,20,10,32,10.20
2019,04,20,10,33,10.20
2019,04,20,10,34,10.20
2019,04,20,10,35,10.20
2019,04,20,10,36,10.30
2019,04,20,10,37,10.30
2019,04,20,10,38,10.40
2019,04,20,10,39,10.40
2019,04,20,10,40,10.40
2019,04,20,10,41,10.60
2019,04,20,10,42,10.70
2019,04,20,10,43,10.90
2019,04,20,10,44,11.00
2019,04,20,10,45,11.10
2019,04,20,10,46,11.20
2019,04,20,10,47,11.20
2019,04,20,10,48,11.30
2019,04,20,10,49,11.40
2019,04,20,10,50,11.50
2019,04,20,10,51,11.60
2019,04,20,10,52,11.60
2019,04,20,10,53,11.60
2019,04,20,10,54,11.60
2019,04,20,10,55,11.60
2019,04,20,10,56,11.60
2019,04,20,10,57,11.60
2019,04,20,10,58,11.60
2019,04,20,10,59,11.70
2019,04,20,11,00,11.80
2019,04,20,11,01,11.80
2019,04,20,11,02,11.70
2019,04,20,11,03,11.70
2019,04,20,11,04,11.70
2019,04,20,11,05,11.70
2019,04,20,11,06,11.80
2019,04,20,11,07,11.80
2019,04,20,11,08,11.80
2019,04,20,11,09,11.70
2019,04,20,11,10,11.70
2019,04,20,11,11,11.70
2019,04,20,11,12,11.80
2019,04,20,11,13,11.80
2019,04,20,11,14,11.80
2019,04,20,11,15,11.80
2019,04,20,11,16,11.80
2019,04,20,11,17,11.80
2019,04,20,11,18,11.80
2019,04,20,11,19,11.80
2019,04,20,11,20,11.90
2019,04,20,11,21,12.00
2019,04,20,11,22,12.00
2019,04,20,11,23,12.10
2019,04,20,11,24,12.30
2019,04,20,11,25,12.40
2019,04,20,11,26,12.40
2019,04,20,11,27,12.50
2019,04,20,11,28,12.40
2019,04,20,11,29,12.40
2019,04,20,11,30,12.50
2019,04,20,11,31,12.50
2019,04,20,11,32,12.50
2019,04,20,11,33,12.50
2019,04,20,11,34,12.40
2019,04,20,11,35,12.40
2019,04,20,11,36,12.40
2019,04,20,11,37,12.30
2019,04,20,11,38,12.20
2019,04,20,11,39,12.20
2019,04,20,11,40,12.20
2019,04,20,11,41,12.20
2019,04,20,11,42,12.30
2019,04,20,11,43,12.40
2019,04,20,11,44,12.50
2019,04,20,11,45,12.60
2019,04,20,11,46,12.80
2019,04,20,11,47,12.80
2019,04,20,11,48,12.90
2019,04,20,11,49,12.90
2019,04,20,11,50,12.90
2019,04,20,11,51,12.90
2019,04,20,11,52,12.90
2019,04,20,11,53,12.90
2019,04,20,11,54,12.90
2019,04,20,11,55,12.80
2019,04,20,11,56,12.80
2019,04,20,11,57,12.70
2019,04,20,11,58,12.70
2019,04,20,11,59,12.60
2019,04,20,12,00,12.60
2019,04,20,12,01,12.60
2019,04,20,12,02,12.50
2019,04,20,12,03,12.50
2019,04,20,12,04,12.50
2019,04,20,12,05,12.40
2019,04,20,12,06,12.50
2019,04,20,12,07,12.60
2019,04,20,12,08,12.60
2019,04,20,12,09,12.60
2019,04,20,12,10,12.70
2019,04,20,12,11,12.80
2019,04,20,12,12,13.00
2019,04,20,12,13,13.10
2019,04,20,12,14,13.10
2019,04,20,12,15,13.10
2019,04,20,12,16,13.10
2019,04,20,12,17,13.10
2019,04,20,12,18,13.10
2019,04,20,12,19,13.10
2019,04,20,12,20,13.20
2019,04,20,12,21,13.20
2019,04,20,12,22,13.20
2019,04,20,12,23,13.30
2019,04,20,12,24,13.40
2019,04,20,12,25,13.50
2019,04,20,12,26,13.40
2019,04,20,12,27,13.30
2019,04,20,12,28,13.30
2019,04,20,12,29,13.30
2019,04,20,12,30,13.30
2019,04,20,12,31,13.20
2019,04,20,12,32,13.10
2019,04,20,12,33,13.10
2019,04,20,12,34,13.10
2019,04,20,12,35,13.10
2019,04,20,12,36,13.10
2019,04,20,12,37,13.20
2019,04,20,12,38,13.30
2019,04,20,12,39,13.30
2019,04,20,12,40,13.30
2019,04,20,12,41,13.30
2019,04,20,12,42,13.20
2019,04,20,12,43,13.20
2019,04,20,12,44,13.20
2019,04,20,12,45,13.20
2019,04,20,12,46,13.20
2019,04,20,12,47,13.20
2019,04,20,12,48,13.20
2019,04,20,12,49,13.20
2019,04,20,12,50,13.20
2019,04,20,12,51,13.40
2019,04,20,12,52,13.50
2019,04,20,12,53,13.60
2019,04,20,12,54,13.60
2019,04,20,12,55,13.70
2019,04,20,12,56,13.60
2019,04,20,12,57,13.50
2019,04,20,12,58,13.50
2019,04,20,12,59,13.50
2019,04,20,13,00,13.60
2019,04,20,13,01,13.70
2019,04,20,13,02,13.80
2019,04,20,13,03,13.80
2019,04,20,13,04,13.90
2019,04,20,13,05,14.00
2019,04,20,13,06,14.10
2019,04,20,13,07,14.10
2019,04,20,13,08,14.10
2019,04,20,13,09,14.10
2019,04,20,13,10,14.10
2019,04,20,13,11,14.10
2019,04,20,13,12,14.10
2019,04,20,13,13,14.20
2019,04,20,13,14,14.20
2019,04,20,13,15,14.30
2019,04,20,13,16,14.30
2019,04,20,13,17,14.40
2019,04,20,13,18,14.30
2019,04,20,13,19,14.20
2019,04,20,13,20,14.20
2019,04,20,13,21,14.30
2019,04,20,13,22,14.30
2019,04,20,13,23,14.40
2019,04,20,13,24,14.50
2019,04,20,13,25,14.60
2019,04,20,13,26,14.70
2019,04,20,13,27,14.70
2019,04,20,13,28,14.70
2019,04,20,13,29,14.60
2019,04,20,13,30,14.50
2019,04,20,13,31,14.40
2019,04,20,13,32,14.40
2019,04,20,13,33,14.40
2019,04,20,13,34,14.40
2019,04,20,13,35,14.40
2019,04,20,13,36,14.40
2019,04,20,13,37,14.40
2019,04,20,13,38,14.40
2019,04,20,13,39,14.30
2019,04,20,13,40,14.30
2019,04,20,13,41,14.30
2019,04,20,13,42,14.30
2019,04,20,13,43,14.30
2019,04,20,13,44,14.30
2019,04,20,13,45,14.40
2019,04,20,13,46,14.30
2019,04,20,13,47,14.40
2019,04,20,13,48,14.50
2019,04,20,13,49,14.60
2019,04,20,13,50,14.70
2019,04,20,13,51,14.70
2019,04,20,13,52,14.70
2019,04,20,13,53,14.60
2019,04,20,13,54,14.60
2019,04,20,13,55,14.60
2019,04,20,13,56,14.50
2019,04,20,13,57,14.40
2019,04,20,13,58,14.50
2019,04,20,13,59,14.50
2019,04,20,14,00,14.50
2019,04,20,14,01,14.50
2019,04,20,14,02,14.40
2019,04,20,14,03,14.40
2019,04,20,14,04,14.40
2019,04,20,14,05,14.40
2019,04,20,14,06,14.40
2019,04,20,14,07,14.30
2019,04,20,14,08,14.30
2019,04,20,14,09,14.30
2019,04,20,14,10,14.20
2019,04,20,14,11,14.30
2019,04,20,14,12,14.30
2019,04,20,14,13,14.40
2019,04,20,14,14,14.50
2019,04,20,14,15,14.60
2019,04,20,14,16,14.60
2019,04,20,14,17,14.70
2019,04,20,14,18,14.70
2019,04,20,14,19,14.70
2019,04,20,14,20,14.70
2019,04,20,14,21,14.70
2019,04,20,14,22,14.70
2019,04,20,14,23,14.60
2019,04,20,14,24,14.60
2019,04,20,14,25,14.50
2019,04,20,14,26,14.50
2019,04,20,14,27,14.40
2019,04,20,14,28,14.40
2019,04,20,14,29,14.50
2019,04,20,14,30,14.60
2019,04,20,14,31,14.70
2019,04,20,14,32,14.70
2019,04,20,14,33,14.70
2019,04,20,14,34,14.70
2019,04,20,14,35,14.70
2019,04,20,14,36,14.80
2019,04,20,14,37,14.90
2019,04,20,14,38,15.00
2019,04,20,14,39,15.00
2019,04,20,14,40,15.00
2019,04,20,14,41,15.00
2019,04,20,14,42,15.00
2019,04,20,14,43,14.90
2019,04,20,14,44,14.90
2019,04,20,14,45,14.90
2019,04,20,14,46,14.90
2019,04,20,14,47,15.00
2019,04,20,14,48,15.10
2019,04,20,14,49,15.10
2019,04,20,14,50,15.10
2019,04,20,14,51,15.00
2019,04,20,14,52,15.00
2019,04,20,14,53,14.90
2019,04,20,14,54,14.90
2019,04,20,14,55,14.90
2019,04,20,14,56,14.90
2019,04,20,14,57,14.90
2019,04,20,14,58,14.90
2019,04,20,14,59,14.90
2019,04,20,15,00,15.00
2019,04,20,15,01,15.00
2019,04,20,15,02,15.00
2019,04,20,15,03,15.00
2019,04,20,15,04,15.00
2019,04,20,15,05,15.10
2019,04,20,15,06,15.10
2019,04,20,15,07,15.00
2019,04,20,15,08,15.10
2019,04,20,15,09,15.10
2019,04,20,15,10,15.10
2019,04,20,15,11,15.20
2019,04,20,15,12,15.20
2019,04,20,15,13,15.30
2019,04,20,15,14,15.40
2019,04,20,15,15,15.40
2019,04,20,15,16,15.50
2019,04,20,15,17,15.60
2019,04,20,15,18,15.60
2019,04,20,15,19,15.60
2019,04,20,15,20,15.60
2019,04,20,15,21,15.60
2019,04,20,15,22,15.60
2019,04,20,15,23,15.60
2019,04,20,15,24,15.70
2019,04,20,15,25,15.80
2019,04,20,15,26,15.80
2019,04,20,15,27,15.80
2019,04,20,15,28,15.70
2019,04,20,15,29,15.70
2019,04,20,15,30,15.70
2019,04,20,15,31,15.70
2019,04,20,15,32,15.80
2019,04,20,15,33,15.80
2019,04,20,15,34,15.90
2019,04,20,15,35,15.90
2019,04,20,15,36,16.00
2019,04,20,15,37,16.10
2019,04,20,15,38,16.10
2019,04,20,15,39,16.10
2019,04,20,15,40,16.20
2019,04,20,15,41,16.20
2019,04,20,15,42,16.20
2019,04,20,15,43,16.10
2019,04,20,15,44,16.00
2019,04,20,15,45,16.00
2019,04,20,15,46,16.00
2019,04,20,15,47,16.00
2019,04,20,15,48,16.00
2019,04,20,15,49,16.00
2019,04,20,15,50,16.00
2019,04,20,15,51,16.00
2019,04,20,15,52,16.10
2019,04,20,15,53,16.10
2019,04,20,15,54,16.20
2019,04,20,15,55,16.30
2019,04,20,15,56,16.30
2019,04,20,15,57,16.40
2019,04,20,15,58,16.40
2019,04,20,15,59,16.40
2019,04,20,16,00,16.40
2019,04,20,16,01,16.30
2019,04,20,16,02,16.30
2019,04,20,16,03,16.20
2019,04,20,16,04,16.20
2019,04,20,16,05,16.10
2019,04,20,16,06,16.10
2019,04,20,16,07,16.00
2019,04,20,16,08,16.00
2019,04,20,16,09,16.00
2019,04,20,16,10,16.00
2019,04,20,16,11,16.00
2019,04,20,16,12,16.00
2019,04,20,16,13,16.00
2019,04,20,16,14,16.10
2019,04,20,16,15,16.10
2019,04,20,16,16,16.20
2019,04,20,16,17,16.20
2019,04,20,16,18,16.20
2019,04,20,16,19,16.20
2019,04,20,16,20,16.10
2019,04,20,16,21,16.10
2019,04,20,16,22,16.10
2019,04,20,16,23,16.10
2019,04,20,16,24,16.10
2019,04,20,16,25,16.20
2019,04,20,16,26,16.30
2019,04,20,16,27,16.30
2019,04,20,16,28,16.30
2019,04,20,16,29,16.20
2019,04,20,16,30,16.20
2019,04,20,16,31,16.20
2019,04,20,16,32,16.20
2019,04,20,16,33,16.20
2019,04,20,16,34,16.10
2019,04,20,16,35,16.10
2019,04,20,16,36,16.10
2019,04,20,16,37,16.10
2019,04,20,16,38,16.00
2019,04,20,16,39,16.00
2019,04,20,16,40,15.90
2019,04,20,16,41,15.90
2019,04,20,16,42,16.00
2019,04,20,16,43,16.00
2019,04,20,16,44,16.00
2019,04,20,16,45,16.00
2019,04,20,16,46,16.10
2019,04,20,16,47,16.10
2019,04,20,16,48,16.20
2019,04,20,16,49,16.20
2019,04,20,16,50,16.30
2019,04,20,16,51,16.30
2019,04,20,16,52,16.40
2019,04,20,16,53,16.40
2019,04,20,16,54,16.40
2019,04,20,16,55,16.40
2019,04,20,16,56,16.40
2019,04,20,16,57,16.40
2019,04,20,16,58,16.40
2019,04,20,16,59,16.40
2019,04,20,17,00,16.40
2019,04,20,17,01,16.40
2019,04,20,17,02,16.40
2019,04,20,17,03,16.40
2019,04,20,17,04,16.40
2019,04,20,17,05,16.40
2019,04,20,17,06,16.40
2019,04,20,17,07,16.40
2019,04,20,17,08,16.40
2019,04,20,17,09,16.40
2019,04,20,17,10,16.40
2019,04,20,17,11,16.40
2019,04,20,17,12,16.40
2019,04,20,17,13,16.40
2019,04,20,17,14,16.50
2019,04,20,17,15,16.50
2019,04,20,17,16,16.60
2019,04,20,17,17,16.50
2019,04,20,17,18,16.50
2019,04,20,17,19,16.40
2019,04,20,17,20,16.30
2019,04,20,17,21,16.30
2019,04,20,17,22,16.30
2019,04,20,17,23,16.30
2019,04,20,17,24,16.20
2019,04,20,17,25,16.20
2019,04,20,17,26,16.20
2019,04,20,17,27,16.30
2019,04,20,17,28,16.20
2019,04,20,17,29,16.20
2019,04,20,17,30,16.20
2019,04,20,17,31,16.20
2019,04,20,17,32,16.10
2019,04,20,17,33,16.10
2019,04,20,17,34,16.10
2019,04,20,17,35,16.10
2019,04,20,17,36,16.20
2019,04,20,17,37,16.20
2019,04,20,17,38,16.20
2019,04,20,17,39,16.20
2019,04,20,17,40,16.30
2019,04,20,17,41,16.30
2019,04,20,17,42,16.30
2019,04,20,17,43,16.30
2019,04,20,17,44,16.30
2019,04,20,17,45,16.40
2019,04,20,17,46,16.40